Location: ??????
(42.0089°N, 44.3281°E)
Time: 19:45:10
(UTC+00:00)

Okean O Rocket - Pass Details

Date: 24 October 2021
Orbit: 623 x 643 km, 98.2° (Epoch: 02 December)

Event Time Altitude Azimuth Distance (km) Brightness Sun altitude
Rises 15:55:10 0° 188° (S) 2,889 5.1 -20.6°
Reaches altitude 10° 15:57:31 10° 198° (SSW) 1,989 4.3 -21.1°
Maximum altitude 16:01:26 33° 263° (W) 1,057 3.3 -21.8°
Drops below altitude 10° 16:05:23 10° 328° (NNW) 2,010 4.6 -22.5°
Sets 16:07:47 0° 338° (NNW) 2,925 5.4 -23.0°
